User: anonymous   Login
Location: Unspecified
(0.0000°N, 0.0000°E)
Time: 15:21:57
(UTC+00:00)
Language:

EUCROPIS - Orbit

View from above orbital plane
View from above orbital plane
View from above satellite
View from above satellite

Ground track
Ground track

The orbit data is extracted from the following two-line orbital elements,

1 43807U 18099BB  19264.17132323 -.00000060  00000-0 -22999-6 0  9998
2 43807  97.7376 335.0404 0013252  16.9041 343.2618 14.95420343 42958
Epoch (UTC): 21 September 2019 04:06:42
Eccentricity: 0.0013252
inclination: 97.7376°
perigee height: 572 km
apogee height: 590 km
right ascension of ascending node: 335.0404°
argument of perigee: 16.9041°
revolutions per day: 14.95420343
mean anomaly at epoch: 343.2618°
orbit number at epoch: 4295

The dashed part of the orbit path shows where the satellite is in the earth's shadow,  

DLR